User: anonymous
Location: Unspecified
(0.0000°N, 0.0000°E)
Time: 20:23:42
(UTC+02:00)
Language:

YAOGAN 1 - Orbit

View from above orbital plane
View from above orbital plane
View from above satellite
View from above satellite

Ground track
Ground track

The orbit data is extracted from the following two-line orbital elements,

1 29092U 06015A   14294.05971696  .00001324  00000-0  17379-3 0  1944
2 29092 097.9871 289.2013 0001556 104.7035 296.1778 14.81962479458634
Epoch (UTC): 21 October 2014 01:25:59
Eccentricity: 0.0001556
inclination: 97.9871°
perigee height: 622 km
apogee height: 624 km
right ascension of ascending node: 289.2013°
argument of perigee: 104.7035°
revolutions per day: 14.81962479
mean anomaly at epoch: 296.1778°
orbit number at epoch: 45863

The dashed part of the orbit path shows where the satellite is in the earth's shadow,  

DLR